Cosmos 1092 Rocket - Orbit

View from above orbital plane
View from above orbital plane
View from above satellite
View from above satellite

Ground track
Ground track

The orbit data is extracted from the following two-line orbital elements,

1 11327U 79030B   13168.50282457  .00000024  00000-0  93350-5 0  5644
2 11327 082.9512 300.3802 0026353 309.8302 119.6049 13.76896979718127
Epoch (UTC): 17 June 2013 12:04:04
Eccentricity: 0.0026353
inclination: 82.9512°
perigee height: 955 km
apogee height: 994 km
right ascension of ascending node: 300.3802°
argument of perigee: 309.8302°
revolutions per day: 13.76896979
mean anomaly at epoch: 119.6049°
orbit number at epoch: 71812

The dashed part of the orbit path shows where the satellite is in the earth's shadow,  

Developed and maintained by Chris Peat, Heavens-Above GmbH. Please read the updated FAQ before sending e-mail. Imprint. DLR